Flag for Germany Weather past 2 weeks in Schwerin, Mecklenburg-Western Pomerania, Germany

Now
60 °F

Fog.


Feels Like: 61 °F
Forecast: 54 / 64 °F
Wind: 3 mph from Southwest

Location: Schwerin

Current Time: Aug 30, 2014 at 10:50:25 PM

Latest Report: Aug 30, 2014 at 10:00 PM


Visibility: 3 mi

Pressure: 29.94 "Hg

Humidity: 96%

Dew point: 59 °F

Location of SchwerinLocation

Historic Weather in Schwerin — Graph

°F

Schwerin temperature yesterday

Maximum temperature yesterday: 69 °F (at 6:00 PM)
Minimum temperature yesterday: 56 °F (at 1:00 AM)
Average temperature yesterday: 61 °F

Past Weeks' High & Low Weather Summary

 TemperatureHumidityPressure
High73 °F (Aug 28, 6:00 PM)100% (Aug 26, 6:00 AM)30.06 "Hg (Aug 26, 6:00 AM)
Low44 °F (Aug 26, 7:00 AM)34% (Aug 28, 6:00 PM)29.50 "Hg (Aug 18, 12:00 PM)
Average57 °F77%29.86 "Hg
* Reported Aug 15 10:00 PM — Aug 30 10:00 PM, Schwerin, Weather by CustomWeather, © 2014

Note: Actual official high and low records may vary slightly from our data, if they occured in-between our weather recording intervals... More about our weather records

Advertising

Schwerin weather history for previous 24 hours

 ConditionsComfort  
Time TempWeatherWind HumidityBarometerVisibility
10:00 PM
Aug 30
60 °FFog.3 mph96%29.94 "Hg3 mi
9:00 PM60 °FFog.3 mph95%29.94 "Hg4 mi
8:00 PM61 °FOvercast.5 mph94%29.94 "Hg5 mi
7:00 PM62 °FLight rain. Fog.3 mph93%29.94 "Hg2 mi
6:00 PM64 °FOvercast.3 mph82%29.94 "Hg10 mi
4:00 PM63 °FOvercast.3 mph85%29.96 "Hg7 mi
3:00 PM62 °FLight rain. Overcast.5 mph88%29.97 "Hg6 mi
2:00 PM64 °FOvercast.5 mph78%29.96 "Hg14 mi
1:00 PM64 °FOvercast.6 mph74%29.96 "Hg15 mi
12:00 PM65 °FOvercast.5 mph71%29.96 "Hg15 mi
10:00 AM60 °FLight rain. Overcast.2 mph86%29.97 "Hg6 mi
9:00 AM58 °FOvercast.3 mph90%29.97 "Hg5 mi
8:00 AM55 °FOvercast.3 mph93%29.97 "Hg5 mi
7:00 AM54 °FOvercast.2 mph94%29.96 "Hg5 mi
6:00 AM54 °FFog.2 mph95%29.97 "Hg4 mi
4:00 AM54 °FFog.3 mph96%29.98 "Hg3 mi
3:00 AM56 °FPassing clouds.3 mph93%29.97 "Hg7 mi
2:00 AM56 °FOvercast.2 mph91%29.97 "Hg7 mi
1:00 AM58 °FOvercast.1 mph86%29.97 "Hg13 mi
12:00 AM60 °FOvercast.3 mph80%29.98 "Hg14 mi
Weather by CustomWeather, © 2014

See weather overviewHow to use our weather pages